User: anonymous   Login
Location: Unspecified
(0.0000°N, 0.0000°E)
Time: 23:19:17
(UTC+00:00)
Language:

STARLINK-4420 - Orbit

View from above orbital plane
View from above orbital plane
View from above satellite
View from above satellite

Ground track
Ground track

The orbit is defined by the following mean orbital elements,

1 53654U          26145.63100117 +.00000000 +00000-0 +73960-3 0 00001
2 53654  97.4497  26.6294 0001927  80.7808 279.3637 15.05605329    07
Epoch (UTC): 25 May 2026 15:08:38
Eccentricity: 0.0001927
inclination: 97.4497°
perigee height: 548 km
apogee height: 551 km
right ascension of ascending node: 26.6294°
argument of perigee: 80.7808°
revolutions per day: 15.05605329
mean anomaly at epoch: 279.3637°

The dashed part of the orbit path shows where the satellite is in the earth's shadow,  

DLR